Regional Weather Roundup
Issued by NWS

Home | Current Version | Previous Version | Text Only | Print | Product List | Glossary On
Versions: 1 2 3 4 5 6 7 8 9 10 11 12 13 14 15 16 17 18 19 20 21 22 23 24 25 26 27 28 29 30 31 32 33 34 35 36 37 38 39 40 41 42 43 44 45 46 47 48 49 50
000
ASUS43 KMPX 280310
RWRMN
WEATHER ROUNDUP FOR MINNESOTA
NATIONAL WEATHER SERVICE TWIN CITIES/CHANHASSEN MN
1000 PM CDT THU AUG 27 2015


NOTE: "FAIR" INDICATES FEW OR NO CLOUDS BELOW 12,000 FEET WITH NO
SIGNIFICANT WEATHER AND/OR OBSTRUCTIONS TO VISIBILITY. N/A MEANS
CURRENT SKY AND/OR WEATHER CONDITIONS ARE NOT AVAILABLE.

MNZ060>063-068>070-280400-
   Twin Cities Metro

CITY           SKY/WX    TMP DP  RH WIND       PRES   REMARKS
TWIN CITIES    MOCLDY    68  59  73 S10       30.00F
ST PAUL        MOCLDY    66  60  81 SE10      30.00F
CRYSTAL        MOCLDY    68  58  70 S8        29.98F
BLAINE         MOCLDY    68  61  77 S7        30.00S
LAKEVILLE      CLOUDY    63  61  94 S3        30.01S
EDEN PRAIRIE   CLOUDY    66  59  78 S7        29.99S
SOUTH ST PAUL  MOCLDY    67  59  74 SE6       30.00S
LAKE ELMO      FAIR      64  59  82 S5        30.02S
$$
MNZ001>005-007-008-013>017-022>024-027-028-280400-
   Northwest Minnesota

CITY           SKY/WX    TMP DP  RH WIND       PRES   REMARKS
BEMIDJI        PTCLDY    64  63  94 S3        29.95S
HALLOCK        CLEAR     64  61  88 SE7       29.87F
ROSEAU         CLEAR     63  57  82 S3        29.91S
WARROAD        CLEAR     64  61  88 CALM      29.91S
THIEF RVR FALL CLEAR    N/A N/A N/A S6        29.91F
CROOKSTON      CLEAR     63  61  94 SE7       29.91F
FOSSTON        CLEAR     61  59  94 CALM      29.94S
DETROIT LAKES  PTCLDY    68  64  88 S5        29.96R
MOORHEAD       PTCLDY    68  64  88 S7        29.93R
PARK RAPIDS    MOCLDY    68  63  84 S5        29.96S
MAHNOMEN       FAIR      65  64  93 CALM      29.94S
$$
MNZ006-009>011-018-025>026-280400-
   North Central Minnesota

CITY           SKY/WX    TMP DP  RH WIND       PRES   REMARKS
BAUDETTE       CLEAR     64  60  87 S3        29.91F
FLAG ISLAND    CLEAR     66  63  88 CALM      29.89S FOG
INTL FALLS     CLOUDY    65  60  84 CALM      29.94S
WASKISH        MOCLDY    64  63  94 CALM      29.93F
BIG FORK       PTCLDY    66  61  82 S3        29.96S
LONGVILLE      CLOUDY    66  63  88 CALM      29.97S
GRAND RAPIDS     N/A     64  59  82 S7        29.97F
CRANE LAKE     CLEAR    N/A N/A N/A VRB1      29.97F
ORR            MOCLDY    64  57  77 S1        29.94F
COOK           CLOUDY    66  61  82 S5        29.98S
WALKER         FAIR      67  63  87 S3        29.95S
$$
MNZ012-019>021-037-280400-
   Northeast Minnesota

CITY           SKY/WX    TMP DP  RH WIND       PRES   REMARKS
DULUTH         CLOUDY    60  53  77 SE3       30.01S
ELY            CLOUDY    64  55  72 S6        29.99F
HIBBING        CLOUDY    67  60  78 SE5       29.98F
EVELETH        CLOUDY    64  59  82 S6        30.00S
DULUTH HARBOR  CLOUDY    57  52  82 E6        30.01F
TWO HARBORS    MOCLDY    63  55  77 N3        29.99F
SILVER BAY     CLOUDY    61  54  77 CALM      30.00S
GRAND MARAIS     N/A     56  52  86 CALM      30.02S
G MARAIS ARPRT CLOUDY    54  46  76 CALM      30.05S
$$
MNZ029>031-032-039>041-046>048-054>057-064-280400-
   West Central Minnesota

CITY           SKY/WX    TMP DP  RH WIND       PRES   REMARKS
FERGUS FALLS   MOCLDY    70  64  83 SE5       29.94R
WHEATON        MOCLDY    64  63  94 SE7       29.96R
MORRIS         MOCLDY    66  64  94 SE7       29.95R
ALEXANDRIA     MOCLDY    67  65  93 SE8       29.98S
ELBOW LAKE     FAIR      67  66  95 SE5       29.96R
WADENA         MOCLDY    64  63  94 CALM      29.95F
GLENWOOD       MOCLDY    64  63  94 SE6       29.98R
APPLETON       MOCLDY    68  64  88 SE7       29.95R
BENSON         CLOUDY    66  63  88 SE5       29.96S
ORTONVILLE     MOCLDY    68  64  88 SE5       29.95R
MADISON        CLOUDY    64  63  94 E3        29.96R
WILLMAR        FAIR      64  64 100 E5        29.99R
$$
MNZ033>034-036-042>043-049>051-058-059-280400-
   Central Minnesota

CITY           SKY/WX    TMP DP  RH WIND       PRES   REMARKS
ST CLOUD       MOCLDY    63  61  93 SE7       29.98F
SAUK CENTRE    FAIR      63  62  96 SE5       29.98R
PAYNESVILLE    CLOUDY    65  62  89 E5        29.98S
AITKIN         CLOUDY    70  61  73 S3        29.97S
PINE RIVER     CLOUDY    66  63  88 CALM      30.00S
BRAINERD       CLOUDY    67  62  84 S7        29.98S
STAPLES        MOCLDY    66  63  88 SE3       29.97S
LONG PRAIRIE   FAIR      61  61 100 CALM      29.98S
LITTLE FALLS   MOCLDY    64  59  82 S5        29.98S
LITCHFIELD     CLOUDY    64  64 100 SE6       29.99R
BUFFALO        MOCLDY    64  59  83 SE3       30.00S
MAPLE LAKE     MOCLDY    64  62  93 CALM      30.00S
$$
MNZ037-044-045-052-053-280400-
   East Central Minnesota

CITY           SKY/WX    TMP DP  RH WIND       PRES   REMARKS
PRINCETON      MOCLDY    66  61  82 S6        29.99S
MORA           CLOUDY    63  59  88 CALM      30.01S
CAMBRIDGE      MOCLDY    66  57  72 S3        29.98S
RUSH CITY      MOCLDY    64  60  86 S5        30.00S
MOOSE LAKE     CLOUDY    64  59  82 CALM      29.98S
HINCKLEY       FAIR      64  61  88 SE3       29.99S
CLOQUET        CLOUDY    59  52  77 CALM      30.01S
MCGREGOR       CLOUDY    64  61  88 SE3       29.99S
$$
MNZ071>073-080-081-089-090-097-098-280400-
   Southwest Minnesota

CITY           SKY/WX    TMP DP  RH WIND       PRES   REMARKS
MONTEVIDEO     CLOUDY    64  63  94 SE5       29.98R
GRANITE FALLS  CLOUDY    65  64  95 E3        29.98R
CANBY          CLOUDY    68  64  88 NE5       29.97R
MARSHALL       CLOUDY    68  61  77 SE5       29.96S
REDWOOD FALLS  CLOUDY    66  64  93 E3        29.97R
OLIVIA         CLOUDY    63  59  88 SE6       29.98R
PIPESTONE      LGT RAIN  66  63  88 S10       29.98S
WINDOM         LGT RAIN  66  61  82 S12       29.98F
WORTHINGTON    CLOUDY    63  59  88 S13       30.00R
JACKSON        RAIN      64  63  94 SE9       30.01F
TRACY          CLOUDY    67  64  87 S16G22    29.95S
SLAYTON        CLOUDY    64  64 100 CALM      29.99S
$$
MNZ065>067-074>077-082>085-091>093-280400-
   South Central Minnesota

CITY           SKY/WX    TMP DP  RH WIND       PRES   REMARKS
MANKATO        CLOUDY    64  57  77 S6        30.02R
NEW ULM        CLOUDY    64  63  94 SE5       29.99R
ST JAMES       CLOUDY    66  63  88 SE7       30.01R
FAIRMONT       CLOUDY    64  55  72 S12       30.01F
GLENCOE        CLOUDY    64  62  94 CALM      30.00R
FARIBAULT      CLOUDY    64  61  88 SE5       30.02R
OWATONNA       CLOUDY    64  61  88 SE8       30.02R
WASECA         CLOUDY    63  59  88 MISG      30.04R
ALBERT LEA     LGT RAIN  64  61  88 S12G17    30.04R
$$
MNZ078>079-086>088-094>096-280400-
   Southeast Minnesota

CITY           SKY/WX    TMP DP  RH WIND       PRES   REMARKS
ROCHESTER      CLOUDY    63  59  87 S8        30.05S
RED WING       MOCLDY    66  61  82 SE5       30.01F
STANTON        CLOUDY    67  59  76 SE7       30.00S
DODGE CENTER   CLOUDY    63  59  88 SE7       30.05R
WINONA         MOCLDY    70  61  73 CALM      30.05S
AUSTIN         CLOUDY    66  61  82 S3        30.05R
PRESTON        CLOUDY    63  58  85 S6        30.06F
$$
ABBREVIATIONS USED IN REMARKS
   TC - TEMPERATURES IN CELSIUS
  WCI - WIND CHILL INDEX
   HX - HEAT INDEX
  VSB - VISIBILITY
$$



USA.gov is the U.S. government's official web portal to all federal, state and local government web resources and services.